Home   Weather   Deggendorf   Past weeks

Flag for Germany Past Weather in Deggendorf, Bavaria, Germany — Yesterday and Last 2 Weeks

Now
7 °F

Fog.


Feels Like: 7 °F
Forecast: 2 / 24 °F
Wind: 1 mph from South

Location: Straubing

Current Time: Jan 20, 2017 at 2:56:50 am

Latest Report: Jan 20, 2017 at 2:00 am


Visibility: 2 mi

Pressure: 30.65 "Hg

Humidity: 87%

Dew Point: 4 °F

Location of DeggendorfLocation

Past Weather in Deggendorf — Graph

°F

Deggendorf Temperature Yesterday

Maximum temperature yesterday: 24 °F (at 3:00 pm)
Minimum temperature yesterday: 6 °F (at 9:00 am)
Average temperature yesterday: 13 °F

High & Low Weather Summary for the Past Weeks

 TemperatureHumidityPressure
High40 °F (Jan 13, 6:00 am)100% (Jan 12, 11:00 pm)30.84 "Hg (Jan 12, 11:00 pm)
Low-8 °F (Jan 7, 5:00 am)59% (Jan 6, 2:00 pm)29.41 "Hg (Jan 13, 3:00 am)
Average23 °F85%30.28 "Hg
* Reported Jan 5 2:00 am — Jan 20 2:00 am, Deggendorf, Weather by CustomWeather, © 2017

Note: Actual official high and low records may vary slightly from our data, if they occured in-between our weather recording intervals... More about our weather records

Advertising

Deggendorf Weather History for the Previous 24 Hours

Scroll right to see more
 ConditionsComfort  
Time TempWeatherWind HumidityBarometerVisibility
2:00 am
Fri, Jan 20
7 °FFog.1 mph87%30.65 "Hg2 mi
12:00 am8 °FFog.2 mph89%30.66 "Hg2 mi
11:00 pm
Thu, Jan 19
8 °FFog.2 mph88%30.66 "Hg2 mi
9:00 pm9 °FFog.1 mph89%30.66 "Hg2 mi
8:00 pm10 °FFog.1 mph85%30.65 "Hg2 mi
6:00 pm20 °FClear.3 mph78%30.61 "Hg3 mi
5:00 pm21 °FClear.1 mph76%30.60 "Hg3 mi
3:00 pm24 °FSunny.1 mph63%30.60 "Hg3 mi
2:00 pm20 °FSunny.1 mph71%30.62 "Hg2 mi
12:00 pm18 °FSunny.1 mph62%30.66 "Hg2 mi
11:00 am14 °FSunny.1 mph75%30.68 "Hg2 mi
9:00 am6 °FFog.2 mph85%30.70 "Hg2 mi
8:00 am8 °FFog.1 mph89%30.68 "Hg2 mi
6:00 am7 °FFog.1 mph88%30.67 "Hg2 mi
5:00 am9 °FFog.1 mph94%30.67 "Hg2 mi
3:00 am7 °FFog.3 mph89%30.68 "Hg2 mi
2:00 am7 °FClear.1 mph85%30.68 "Hg2 mi
Weather by CustomWeather, © 2017

See weather overviewHow to use our weather pages